Regional Weather Roundup
Issued by NWS Green Bay, WI

Home | Current Version | Previous Version | Text Only | Print | Product List | Glossary On
Versions: 1 2 3 4 5 6 7 8 9 10 11 12 13 14 15 16 17 18 19 20 21 22 23 24 25 26 27 28 29 30 31 32 33 34 35 36 37 38 39 40 41 42 43 44 45 46 47 48 49 50
000
ASUS43 KGRB 241659
RWRGRB

NORTH-CENTRAL AND NORTHEAST WISCONSIN REGIONAL WEATHER ROUNDUP
NATIONAL WEATHER SERVICE GREEN BAY WI
1100 AM CST WED DEC 24 2014

WIZ005-009-010>012-018-019-241800-
NORTH CENTRAL WISCONSIN

CITY           SKY/WX    TMP DP  RH WIND       PRES   REMARKS
IRONWOOD       CLOUDY    30  28  93 NE3       29.64F
MANITOWISH WTR NOT AVBL
ARBOR VITAE    NOT AVBL
EAGLE RIVER    NOT AVBL
LAND O LAKES   NOT AVBL
RHINELANDER    CLOUDY    31  29  92 VRB3      29.61F FOG
PHILLIPS       LGT SNOW  31  29  93 N5        29.64F
ANTIGO         NOT AVBL
TOMAHAWK       NOT AVBL
MERRILL        NOT AVBL
$$

WIZ013-073-241800-
NORTHEAST WISCONSIN

CITY           SKY/WX    TMP DP  RH WIND       PRES   REMARKS
IRON MOUNTAIN  CLOUDY    33  31  92 N8        29.59F
MARINETTE      CLOUDY    34  32  93 N6        29.57F VSB 1/2
$$

WIZ017-030-035>037-045-241800-
CENTRAL WISCONSIN

CITY           SKY/WX    TMP DP  RH WIND       PRES   REMARKS
MEDFORD        NOT AVBL
WAUSAU         CLOUDY    33  31  92 N6        29.60F
MOSINEE        CLOUDY    32  32 100 N7        29.62F
MARSHFIELD     LGT SNOW  35  31  85 N7        29.61F FOG
WISC RAPIDS    CLOUDY    34  31  88 N10       29.62F
STEVENS POINT  NOT AVBL
WAUPACA        NOT AVBL
SHAWANO        NOT AVBL
CLINTONVILLE   CLOUDY    32  32 100 N5        29.60F FOG
$$

WIZ038-039-048-051-241800-
FOX VALLEY

CITY           SKY/WX    TMP DP  RH WIND       PRES   REMARKS
NWS GREEN BAY  FOG       35  34  96 N6        29.59F VSB 1/4
APPLETON       FOG       34  34 100 N8        29.60F VSB 3/4
OSHKOSH        FOG       35  34  96 N5        29.59F VSB 1/4
FOND DU LAC    FOG       36  34  92 N3        29.59F VSB 1/4
$$

WIZ022-050-052-241800-
EAST CENTRAL WISCONSIN

CITY           SKY/WX    TMP DP  RH WIND       PRES   REMARKS
STURGEON BAY   CLOUDY    36  32  87 N7        29.59F VSB 1/2
MANITOWOC      NOT AVBL
SHEBOYGAN      CLOUDY    38  36  92 W5        29.58F
$$

LMZ563-521-522-541>543-241800-
LAKESHORE

STATION/POSITION TIME  TEMP    WIND        PRES    VSBY  WAVE
                       AIR SEA DIR/SP/G                  HT/PER
                 (UTC) (F)     (DEG/KT/KT) (MB)    (MI)  (FT/S)
SHEBOYGAN LKSHOR 1600   38 36  330/  7/  8 1003.3F
KEWAUNEE LKSHORE 1600   37     350/  3/  6 1001.7F
ALGOMA MARINA    1600          320/  5/  6   N/A
TWO RIVERS CG    1600   36 36              1003.3      6   1
NORTHPORT PIER   1600   35     330/  6/  7 1002.7F
SISTER BAY LKSHO 1600          360/  7/ 10   N/A
STURGEON BAY CG  1600   36 34  270/  3      997.2    3/8   2
CHAMBERS ISLAND  1600   34     340/  7/ 10 1003.7S
MENOMINEE LKSHOR 1600   34     330/  6/  7 1003.3F
$$


USA.gov is the U.S. government's official web portal to all federal, state and local government web resources and services.